Погода в Ансоне

Южная Корея     37°00′27″N   127°16′10″E
темп.,
°C
ветер,
м/с
пор.,
м/с
влажн.,
%
обл.,
%
осадки,
мм/ч
давл.,
гПа
погр.,
м
26 февраля, пт
пт2600:00+3всв2267100 0.0 102436
03:00+2св3368100 0.0 102260
06:00+1всв2366100 0.0 102441
09:00+4всв2458100 0.0 1025169
12:00+10всв574188 0.0 1024645
15:00+12всв463186 0.0 10221360
18:00+9всв3745100 0.0 1024202
21:00+5вюв2464100 0.0 1027151
27 февраля, сб
сб2700:00+4вюв117177 0.0 102823
03:00+2всв237739 0.0 102854
06:00+1всв24810 0.0 103089
09:00+4вюв37690 0.0 1031395
12:00+9вюв575251 0.0 1031905
15:00+11вюв574625 0.0 1028947
18:00+8юв35550 0.0 1029224
21:00+5юв48680 0.0 1031251
28 февраля, вс
вс2800:00+3в36750 0.0 1031175
03:00+1в35800 0.0 1030155
06:000в23830 0.0 102991
09:00+4вюв24680 0.0 1029239
12:00+10ююз114453 0.0 1028607
15:00+11з213666 0.0 1026718
18:00+9ююв1249100 0.0 102649
21:00+9в1154100 0.0 102622
1 марта, пн
пн100:00+7всв1275100 0.8 102684
03:00+6в3589100 3.0 1024229
06:00+6всв3490100 0.6 1023211
09:00+7в2489100 0.9 1023187
12:00+7св2489100 0.7 1020215
15:00+7ссв2494100 3.1 1017191
18:00+6всв5994100 7.8 1015258
21:00+4ссв61193100 21.1 1014337
2 марта, вт
вт200:00+1ссв61295100 14.8 1014436
03:00+1ссв4892100 20.0 1015500
06:00+1с497999 0.1 1017657
09:00+1с476658 0.1 1021663
12:00+4ссв34560 0.0 1023966
15:00+6с35493 0.0 10241422
18:00+4сз24605 0.0 1026359
21:00+1зсз12742 0.0 1029185